This is the latest recevied weather packets stored in our database for station/object KC3VCX. If no packets are shown the sender has not sent any weather packets the latest 10 day(s).
| Time | Temp. | Humidity | Pressure | Rain* | Wind** | Luminosity | Snow |
|---|---|---|---|---|---|---|---|
| 1777579622 | 8.33° C | 68% | 1015.3 hPa | 0 mm | - | 119 W/m² | - |
| 1777579316 | 8.33° C | 68% | 1015.2 hPa | 0 mm | - | 195 W/m² | - |
| 1777579012 | 8.33° C | 68% | 1015.1 hPa | 0 mm | - | 240 W/m² | - |
| 1777578707 | 8.33° C | 67% | 1015.3 hPa | 0 mm | - | 196 W/m² | - |
| 1777578406 | 8.33° C | 68% | 1015.1 hPa | 0 mm | - | 180 W/m² | - |
| 1777578102 | 8.33° C | 69% | 1015.2 hPa | 0 mm | - | 178 W/m² | - |
| 1777577798 | 8.33° C | 69% | 1015.2 hPa | 0 mm | - | 238 W/m² | - |
| 1777577494 | 8.33° C | 68% | 1015.2 hPa | 0 mm | - | 371 W/m² | - |
| 1777577191 | 8.33° C | 70% | 1015.3 hPa | 0 mm | - | 300 W/m² | - |
| 1777576887 | 7.78° C | 72% | 1015.2 hPa | 0 mm | - | 279 W/m² | - |
| 1777576587 | 7.78° C | 73% | 1015.3 hPa | 0 mm | - | 177 W/m² | - |
| 1777576282 | 7.78° C | 72% | 1015.2 hPa | 0 mm | - | 99 W/m² | - |
| 1777575979 | 7.78° C | 73% | 1015.2 hPa | 0 mm | - | 149 W/m² | - |
| 1777575670 | 7.78° C | 71% | 1015.3 hPa | 0 mm | - | 258 W/m² | - |
| 1777575365 | 7.78° C | 72% | 1015.3 hPa | 0 mm | - | 298 W/m² | - |
| 1777575063 | 7.78° C | 73% | 1015.2 hPa | 0 mm | - | 229 W/m² | - |
| 1777574758 | 7.78° C | 73% | 1015.2 hPa | 0 mm | - | 141 W/m² | - |
| 1777574456 | 7.78° C | 72% | 1015.4 hPa | 0 mm | - | 224 W/m² | - |
| 1777574156 | 7.78° C | 73% | 1015.3 hPa | 0 mm | - | 338 W/m² | - |
| 1777573852 | 7.78° C | 76% | 1015.2 hPa | 0 mm | - | 265 W/m² | - |
| 1777573547 | 7.22° C | 76% | 1015.1 hPa | 0 mm | - | 145 W/m² | - |
| 1777573244 | 7.22° C | 76% | 1015.2 hPa | 0 mm | - | 90 W/m² | - |
| 1777572940 | 7.78° C | 76% | 1015.2 hPa | 0 mm | - | 117 W/m² | - |
| 1777572635 | 7.78° C | 75% | 1015.4 hPa | 0 mm | - | 273 W/m² | - |
| 1777572330 | 7.22° C | 77% | 1015.1 hPa | 0 mm | - | 237 W/m² | - |
* Rain latest hour (hover to see other rain measurements)
** Current wind speed in m/s (hover to see current wind gust speed)